Location: River House Observatory
(37.8577°N, 76.3548°W)
Time: 13:27:18
(UTC-04:00)

NOSS 3-1 (C) - Visible Passes

Search period start: 19 April 2014 00:00
Search period end: 29 April 2014 00:00
Orbit: 903 x 1307 km, 63.4° (Epoch: 16 April)

Date Brightness Start Highest point End Pass type
(mag) Time Alt. Az. Time Alt. Az. Time Alt. Az.
19 Apr 6.1 01:59:34 10° N 02:04:41 20° NE 02:10:03 10° E visible
19 Apr 4.2 03:49:20 10° NNW 03:56:52 73° NE 04:04:55 10° SE visible
19 Apr 4.9 05:41:27 10° WNW 05:47:18 24° WSW 05:53:23 10° SSW visible
19 Apr 6.4 21:26:01 10° WNW 21:29:17 14° NNW 21:32:41 10° N visible
20 Apr 6.4 01:15:03 10° N 01:18:42 14° NNE 01:22:28 10° ENE visible
20 Apr 4.8 03:04:16 10° NNW 03:11:29 49° NE 03:19:11 10° SE visible
20 Apr 4.4 04:55:26 10° NW 05:02:22 39° WSW 05:09:39 10° S visible
20 Apr 6.2 20:38:52 10° W 20:43:22 20° NW 20:48:08 10° N visible
21 Apr 6.6 00:31:29 10° NNE 00:32:32 10° NNE 00:33:36 10° NNE visible
21 Apr 5.3 02:19:20 10° NNW 02:25:58 34° NE 02:33:00 10° ESE visible
21 Apr 4.0 04:09:51 10° NW 04:17:18 61° WSW 04:25:12 10° SSE visible
22 Apr 5.8 01:34:31 10° NNW 01:40:16 24° NE 01:46:19 10° E visible
22 Apr 3.9 03:24:32 10° NNW 03:32:08 90° ENE 03:40:13 10° SSE visible
22 Apr 5.2 05:17:29 10° WNW 05:22:19 18° WSW 05:27:18 10° SW visible
22 Apr 6.4 21:02:43 10° NW 21:04:59 12° NNW 21:07:19 10° N visible
23 Apr 6.2 00:49:51 10° N 00:54:23 17° NNE 00:59:06 10° ENE visible
23 Apr 4.3 02:39:23 10° NNW 02:46:50 61° NE 02:52:17 22° SE visible
23 Apr 4.7 04:31:01 10° NW 04:37:27 30° WSW 04:39:14 27° SW visible
23 Apr 6.2 20:15:05 10° WNW 20:18:58 16° NNW 20:23:02 10° N visible
24 Apr 6.4 00:05:33 10° N 00:08:19 12° NNE 00:11:09 10° NE visible
24 Apr 4.9 01:54:23 10° NNW 02:01:23 41° NE 02:05:03 27° E visible
24 Apr 4.2 03:45:14 10° NW 03:52:17 47° WSW 03:52:17 47° WSW visible
25 Apr 5.5 01:09:30 10° NNW 01:15:47 29° NE 01:19:32 20° E visible
25 Apr 3.9 02:59:47 10° NW 03:06:49 71° W 03:06:49 71° W visible
26 Apr 5.9 00:24:45 10° N 00:30:00 20° NE 00:34:33 13° ENE visible
26 Apr 4.0 02:14:34 10° NNW 02:21:52 75° NE 02:21:52 75° NE visible
26 Apr 5.5 04:06:49 10° WNW 04:09:12 17° WNW 04:09:12 17° WNW visible
26 Apr 6.2 23:40:12 10° N 23:44:02 15° NNE 23:48:00 10° ENE visible
27 Apr 4.5 01:29:29 10° NNW 01:36:45 51° NE 01:37:12 51° ENE visible
27 Apr 5.1 03:20:44 10° NW 03:24:33 27° WNW 03:24:33 27° WNW visible
27 Apr 6.3 22:56:22 10° N 22:57:53 11° NNE 22:59:26 10° NE visible
28 Apr 5.1 00:44:32 10° NNW 00:51:15 35° NE 00:52:43 33° ENE visible
28 Apr 4.6 02:35:07 10° NW 02:40:04 42° WNW 02:40:04 42° WNW visible
28 Apr 6.7 23:59:42 10° NNW 00:00:15 12° N 00:00:00 11° N visible
